Location: Brad
(46.1333°N, 22.7833°E)
Time: 15:46:53
(UTC+00:00)

SL-16 R/B - Visible Passes

Search period start: 30 September 2023 00:00
Search period end: 10 October 2023 00:00
Orbit: 841 x 846 km, 71.0° (Epoch: 29 September)

Date Brightness Start Highest point End Pass type
(mag) Time Alt. Az. Time Alt. Az. Time Alt. Az.
30 Sep 4.8 17:21:08 10° W 17:25:00 18° NW 17:28:52 10° N visible
30 Sep 5.1 22:43:00 10° N 22:43:31 11° N 22:43:31 11° N visible
01 Oct 4.7 17:06:34 10° W 17:10:31 19° NW 17:14:28 10° N visible
01 Oct 5.1 22:28:37 10° N 22:28:48 11° N 22:28:48 11° N visible
02 Oct 4.7 16:52:01 10° W 16:56:02 19° NW 17:00:04 10° N visible
03 Oct 4.7 16:37:27 10° W 16:41:33 20° NW 16:45:40 10° N visible
